Погода в Череповеце

Хотите узнать прогноз погоды в Череповеце? Тогда Вам сюда: Погода в Череповеце

Поиск расширенной информации на нашем сайте:

Полезная информация:

Новости сайта



02.01.2020
Опубликован Долгосрочный прогноз погоды по городам России и ближнего зарубежья на январь 2020 года.
Карты: Прогноз на январь и февраль 2020 года, Сравнение прогнозируемой аномалии приземной температуры воздуха на январь 2020 года по разным моделям.




Погода в Череповеце - сегодня

Время (UTC), дата Ветер
(°,м/с) 
Видим.   Явления Облачность Т
(°С)
Тd
(°С)
f(%) Тe
(°С)
Pmin
(гПа)
dP
(гПа)
Po
(мм)
O2
(г/м3)
Тmin Tmax R s Состояние
почвы
09 04.06.20 090 (В) 7-10{11}  10 км  в посл. час ливневой дождь  10/10 240 м кучево-дожд. 
[Cb calv]
+13.6 +12.3 92 +17  1004.9  -0.4  743  283           
12 04.06.20 100 (В) 5{10}  10 км  в посл. час ливневой дождь  10/10 150 м кучево-дожд. 
[Cb calv]
+14.3 +13.8 97 +21  1004.8  -0.1  743  282           
15 04.06.20 110 (В) 5{10}  10 км    10/10 300 м 
[Sc]
+14.6 +13 90 +20  1004.5  -0.2  743  282    +15  14     
18 04.06.20 100 (В) 10 км    10/10 210 м 
[Sc]
+13.8 +12.9 94 +19  1004.4  -0.2  743  282           
21 04.06.20 080 (В) 6000 м  гроза, ливневой дождь  10/10 150 м кучево-дожд. 
[Cb cap]
+13.6 +13.2 97 +20  1003.6  -0.8  742  282           
00 05.06.20 170 (Ю) 10 км  {гроза, ливн. осадки}  10/10 210 м 
[Sc]
+13 +12.6 97 +18  1004.4  0.8  743  283           
03 05.06.20 180 (Ю) 10 км    9/8 240 м средняя 
[St|Ac trans]
+13 +11.5 91 +16  1005.9  1.5  744  284  +12.2      влажная 
06 05.06.20 180 (Ю) 10 км    8/8 500 м 
[Sc]
+15 +10.9 76 +17  1008  2.2  746  283           
09 05.06.20 160 (Ю) 7-10{10}  10 км    9/6 800 м средняя, верхняя 
[Sc|Ac trans|Ci fib]
+17.2 +10.3 64 +19  1009.1  1.2  747  281           
12 05.06.20 180 (Ю) 7-10{11}  10 км    8/6 1350 м средняя 
[Sc|Ac trans]
+19.7 +9.8 53 +21  1009.3  0.2  747  279           
15 05.06.20 180 (Ю) 5{11}  10 км    4/3 1000 м средняя, верхняя 
[Sc|Ac trans|Ci fib]
+19.9 +7.2 44 +20  1009.8  0.5  747  279    +20.8       
18 05.06.20 150 (ЮВ) 3{11}  10 км    9/4 1000 м кучево-дожд., верхняя 
[Cb calv|Ci fib]
+16.6 +10 65 +18  1010.2  0.3  747  282           
21 05.06.20 120 (ЮВ) 10 км    4/1 1000 м верхняя 
[Sc|Ci fib]
+10.4 +9.2 92 +12  1011.4  0.9  748  289           
00 06.06.20 040 (СВ) 10 км  местами туман поземный  6/1 1000 м верхняя 
[Sc|Ci]
+8.4 +8.2 99 +9  1012.4  0.8  749  291           
03 06.06.20 080 (В) 10 км    1/0 верхняя 
[Ci fib]
+11.7 +10.3 91 +14  1012.3  0.1  749  287  +6.8        влажная 
06 06.06.20 120 (ЮВ) 10 км    3/3 1000 м верхняя 
[Sc|Ci fib]
+16.9 +9.9 63 +18  1011.4  -0.6  748  282           
09 06.06.20 170 (Ю) 9-12{12}  10 км    5/5 600 м 
[Cu med, cong]
+18.1 +8.9 55 +18  1012.3  0.9  749  281           
12 06.06.20 190 (Ю) 7-10{12}  10 км    6/4 600 м верхняя 
[Cu med, cong|Ci fib]
+19.7 +8.2 47 +20  1011.7  -0.5  749  280           
15 06.06.20 180 (Ю) 4{11}  10 км    8/3 600 м верхняя 
[Cu med, cong|Ci fib]
+18.9 +9.2 53 +19  1011.6  -0.1  748  280    +20.5       
18 06.06.20 160 (Ю) 10 км    9/6 1200 м средняя, верхняя 
[Sc diur, vesp|Ac trans|Ci fib]
+18.1 +10.3 60 +21  1012  0.3  749  281           
21 06.06.20 140 (ЮВ) 10 км    8/4 1000 м кучево-дожд., средняя 
[Cb calv|Ac trans]
+15.7 +10.2 70 +17  1012.5  0.4  749  284           
00 07.06.20 180 (Ю) 10 км  в посл. час ливневой дождь  10/8 900 м кучево-дожд., средняя 
[Cb calv|Ac trans]
+14.8 +13.6 93 +22  1013.2  0.7  749  284           
03 07.06.20 190 (Ю) 10 км    10/8 400 м кучево-дожд., средняя 
[Cb calv|Ac trans]
+15.6 +15.3 98 +26  1014.3  1.1  750  283  +14.5    0.4    влажная 
06 07.06.20 180 (Ю) 10 км    10/8 480 м кучево-дожд., средняя 
[Cb calv|Ac trans]
+18.1 +15.4 84 +29  1015.4  1.3  751  281           
09 07.06.20 тихо ()   5000 м  дым  9/6 800 м кучево-дожд., средняя 
[Cb calv|Ac trans]
+20.9 +15.5 71 +30  1016.6  1.2  752  278           
Время (UTC), дата Ветер
(°,м/с) 
Видим.   Явления Облачность Т
(°С)
Тd
(°С)
f(%) Тe
(°С)
Pmin
(гПа)
dP
(гПа)
Po
(мм)
O2
(г/м3)
Тmin Tmax R s Состояние
почвы

Для получения пояснительной информации подведите курсор к названию столбца.

ПОГОДА в Череповеце - архив

Всё, что Вы хотите узнать о погоде в Череповеце - удобно и подробно!

Выберите нужную дату (начиная с 1 января 2019* года) и нажмите кнопку "Найти".
Будут отображены архивные сводки погоды по пункту Череповец, начиная с указанной даты.


Отображать данные в формате CSV (для использования в таблицах Excel)


Внимание! Наш архив погоды предназначен исключительно для личного некоммерческого использования в познавательных целях. Если Вам необходимы официальные справки о состоянии погоды (для производственных, юридических, коммерческих и т.п. целей), обращайтесь в органы Росгидромета.

*Примечание: данная дата относится к архиву по метеостанциям СССР (Россия, СНГ, Балтия).
Архив по метеостанциям Зарубежной Европы и Азии (кроме Китая) хранится 10 дней, по другим регионам земного шара (Китай, Африка, Америка, Австралия, Океания) - 1 день.

Череповец - район местоположения метеостанции


Название, широта, долгота, высота метеостанции:
Череповец 59.2°ш. 38°д. 114 м над ур. моря [Российская Федерация]

Дополнительная информация

В oтличие oт бoльшинства пoгoдных сайтoв мы публикуем пoдрoбную метеoинфoрмацию в детальнoм прoфессиoнальнoм фoрмате.

Характеристики температуры и влажнoсти вoздуха измеряются на высoте 2 м в тени вдали oт зданий и деревьев.
Скoрoсть ветра измеряется на высoте 10 м (на урoвне рoста челoвека скoрoсть ветра ниже в 1.5-2 раза). Если метеoстанция нахoдится в гoрoде или в лесу, тo скoрoсть ветра занижена на 2-4 м/с пo сравнению с oткрытым местoм. Скoрoсть ветра над акватoриями крупных рек и oзёр, а также на вершинах хoлмoв на 2-5 м/с выше, чем в oбычных услoвиях.
Атмoсфернoе давление в разных тoчках местнoсти мoжет значительнo oтличаться oт давления на метеoстанции, в зависимoсти oт услoвий рельефа (при пoдъёме на 10 м давление пoнижается примернo на 1 мм рт.ст.).